TimeCST,TemperatureF,Dew PointF,Humidity,Sea Level PressureIn,VisibilityMPH,Wind Direction,Wind SpeedMPH,Gust SpeedMPH,PrecipitationIn,Events,Conditions,WindDirDegrees,DateUTC
12:15 AM,71.6,68.0,88,29.69,10.0,SSW,18.4,-,N/A,,Mostly Cloudy,200,2013-11-17 06:15:00
12:35 AM,73.4,68.0,83,29.69,10.0,SSW,18.4,26.5,N/A,,Overcast,200,2013-11-17 06:35:00
12:55 AM,73.4,68.0,83,29.69,10.0,SSW,18.4,24.2,N/A,,Mostly Cloudy,200,2013-11-17 06:55:00
1:15 AM,73.4,68.0,83,29.69,10.0,SSW,17.3,-,N/A,,Scattered Clouds,200,2013-11-17 07:15:00
1:35 AM,71.6,68.0,88,29.68,10.0,SSW,17.3,21.9,N/A,,Scattered Clouds,200,2013-11-17 07:35:00
1:55 AM,73.4,68.0,83,29.68,10.0,SSW,17.3,24.2,N/A,,Scattered Clouds,200,2013-11-17 07:55:00
2:15 AM,73.4,68.0,83,29.68,10.0,SSW,15.0,-,N/A,,Mostly Cloudy,200,2013-11-17 08:15:00
2:35 AM,73.4,68.0,83,29.68,10.0,SSW,13.8,18.4,N/A,,Mostly Cloudy,200,2013-11-17 08:35:00
2:55 AM,73.4,68.0,83,29.69,10.0,SSW,15.0,19.6,N/A,,Mostly Cloudy,200,2013-11-17 08:55:00
3:15 AM,73.4,68.0,83,29.68,10.0,SSW,15.0,21.9,N/A,,Overcast,210,2013-11-17 09:15:00
3:35 AM,73.4,68.0,83,29.69,10.0,SW,12.7,20.7,N/A,,Overcast,220,2013-11-17 09:35:00
3:55 AM,73.4,68.0,83,29.68,10.0,SSW,16.1,21.9,N/A,,Mostly Cloudy,210,2013-11-17 09:55:00
4:15 AM,73.4,68.0,83,29.68,10.0,SSW,15.0,20.7,N/A,,Scattered Clouds,210,2013-11-17 10:15:00
4:35 AM,71.6,68.0,88,29.69,10.0,SSW,12.7,18.4,N/A,,Mostly Cloudy,210,2013-11-17 10:35:00
4:55 AM,73.4,68.0,83,29.68,10.0,SSW,16.1,20.7,N/A,,Overcast,210,2013-11-17 10:55:00
5:15 AM,71.6,68.0,88,29.68,10.0,SSW,13.8,18.4,N/A,,Mostly Cloudy,210,2013-11-17 11:15:00
5:35 AM,71.6,68.0,88,29.69,10.0,SW,13.8,-,N/A,,Scattered Clouds,220,2013-11-17 11:35:00
5:55 AM,71.6,68.0,88,29.68,10.0,SW,16.1,21.9,N/A,,Scattered Clouds,220,2013-11-17 11:55:00
6:15 AM,71.6,68.0,88,29.69,10.0,SW,18.4,24.2,N/A,,Scattered Clouds,220,2013-11-17 12:15:00
6:35 AM,71.6,68.0,88,29.69,10.0,SW,18.4,27.6,N/A,,Scattered Clouds,220,2013-11-17 12:35:00
6:55 AM,71.6,68.0,88,29.71,10.0,SW,21.9,28.8,N/A,,Scattered Clouds,230,2013-11-17 12:55:00
7:15 AM,71.6,66.2,83,29.72,10.0,SW,17.3,24.2,N/A,,Scattered Clouds,230,2013-11-17 13:15:00
7:35 AM,71.6,66.2,83,29.73,10.0,SW,17.3,24.2,N/A,,Clear,230,2013-11-17 13:35:00
7:55 AM,71.6,64.4,78,29.74,10.0,SW,16.1,28.8,N/A,,Clear,230,2013-11-17 13:55:00
8:15 AM,73.4,66.2,78,29.75,10.0,SW,16.1,21.9,N/A,,Clear,230,2013-11-17 14:15:00
8:35 AM,73.4,64.4,73,29.76,10.0,WSW,13.8,25.3,N/A,,Clear,240,2013-11-17 14:35:00
8:55 AM,73.4,64.4,73,29.77,10.0,WSW,13.8,21.9,N/A,,Clear,240,2013-11-17 14:55:00
9:15 AM,73.4,64.4,73,29.78,10.0,WSW,15.0,19.6,N/A,,Clear,240,2013-11-17 15:15:00
9:35 AM,75.2,62.6,65,29.79,10.0,WSW,13.8,19.6,N/A,,Clear,250,2013-11-17 15:35:00
9:55 AM,77.0,60.8,57,29.79,10.0,West,15.0,19.6,N/A,,Clear,260,2013-11-17 15:55:00
10:15 AM,77.0,60.8,57,29.80,10.0,West,13.8,21.9,N/A,,Clear,260,2013-11-17 16:15:00
10:35 AM,77.0,59.0,54,29.80,10.0,WSW,12.7,-,N/A,,Clear,250,2013-11-17 16:35:00
10:55 AM,78.8,59.0,51,29.81,10.0,West,12.7,17.3,N/A,,Clear,270,2013-11-17 16:55:00
11:15 AM,78.8,57.2,47,29.81,10.0,West,10.4,16.1,N/A,,Clear,270,2013-11-17 17:15:00
11:35 AM,80.6,51.8,37,29.81,10.0,WNW,8.1,16.1,N/A,,Clear,300,2013-11-17 17:35:00
11:55 AM,80.6,48.2,32,29.81,10.0,WNW,10.4,18.4,N/A,,Clear,300,2013-11-17 17:55:00
12:15 PM,82.4,48.2,30,29.81,10.0,NW,11.5,17.3,N/A,,Clear,310,2013-11-17 18:15:00
12:35 PM,82.4,46.4,28,29.80,10.0,WNW,10.4,-,N/A,,Clear,300,2013-11-17 18:35:00
12:55 PM,82.4,46.4,28,29.80,10.0,West,10.4,-,N/A,,Clear,280,2013-11-17 18:55:00
1:15 PM,82.4,44.6,26,29.80,10.0,West,8.1,-,N/A,,Clear,280,2013-11-17 19:15:00
1:35 PM,82.4,44.6,26,29.80,10.0,WNW,8.1,-,N/A,,Clear,300,2013-11-17 19:35:00
1:55 PM,82.4,42.8,25,29.80,10.0,West,9.2,-,N/A,,Clear,280,2013-11-17 19:55:00
2:15 PM,82.4,42.8,25,29.80,10.0,NW,10.4,-,N/A,,Clear,310,2013-11-17 20:15:00
2:35 PM,82.4,42.8,25,29.81,10.0,WNW,6.9,-,N/A,,Clear,300,2013-11-17 20:35:00
2:55 PM,82.4,41.0,23,29.81,10.0,WNW,8.1,-,N/A,,Clear,300,2013-11-17 20:55:00
3:15 PM,82.4,41.0,23,29.82,10.0,WNW,8.1,-,N/A,,Clear,300,2013-11-17 21:15:00
3:35 PM,82.4,42.8,25,29.82,10.0,NW,6.9,-,N/A,,Clear,320,2013-11-17 21:35:00
3:55 PM,82.4,42.8,25,29.83,10.0,WNW,4.6,-,N/A,,Clear,290,2013-11-17 21:55:00
4:15 PM,80.6,42.8,26,29.84,10.0,WNW,4.6,-,N/A,,Clear,300,2013-11-17 22:15:00
4:35 PM,80.6,42.8,26,29.85,10.0,NW,5.8,-,N/A,,Clear,310,2013-11-17 22:35:00
4:55 PM,78.8,42.8,28,29.86,10.0,NW,4.6,-,N/A,,Clear,320,2013-11-17 22:55:00
5:15 PM,75.2,42.8,31,29.87,10.0,NNW,4.6,-,N/A,,Clear,330,2013-11-17 23:15:00
5:35 PM,71.6,41.0,33,29.88,10.0,NNW,5.8,-,N/A,,Clear,330,2013-11-17 23:35:00
5:55 PM,68.0,42.8,40,29.89,10.0,North,4.6,-,N/A,,Clear,360,2013-11-17 23:55:00
6:15 PM,68.0,41.0,37,29.91,10.0,North,6.9,-,N/A,,Clear,350,2013-11-18 00:15:00
6:35 PM,68.0,41.0,37,29.92,10.0,NW,9.2,-,N/A,,Clear,310,2013-11-18 00:35:00
6:55 PM,66.2,41.0,40,29.93,10.0,West,6.9,-,N/A,,Clear,280,2013-11-18 00:55:00
7:15 PM,66.2,39.2,37,29.94,10.0,NNE,10.4,-,N/A,,Clear,20,2013-11-18 01:15:00
7:35 PM,68.0,37.4,33,29.95,10.0,North,11.5,-,N/A,,Clear,10,2013-11-18 01:35:00
7:55 PM,66.2,35.6,32,29.97,10.0,NNE,11.5,-,N/A,,Clear,20,2013-11-18 01:55:00
8:15 PM,64.4,35.6,34,29.97,10.0,NNE,10.4,-,N/A,,Clear,20,2013-11-18 02:15:00
8:35 PM,62.6,35.6,37,29.99,10.0,NNE,11.5,-,N/A,,Clear,30,2013-11-18 02:35:00
8:55 PM,62.6,33.8,34,30.00,10.0,NNE,11.5,17.3,N/A,,Clear,30,2013-11-18 02:55:00
9:15 PM,62.6,33.8,34,30.00,10.0,NNE,11.5,-,N/A,,Clear,20,2013-11-18 03:15:00
9:35 PM,62.6,33.8,34,30.01,10.0,NNE,16.1,19.6,N/A,,Clear,20,2013-11-18 03:35:00
9:55 PM,62.6,32.0,32,30.02,10.0,NNE,17.3,21.9,N/A,,Clear,20,2013-11-18 03:55:00
10:15 PM,62.6,32.0,32,30.04,10.0,NNE,16.1,24.2,N/A,,Clear,30,2013-11-18 04:15:00
10:35 PM,62.6,32.0,32,30.04,10.0,NNE,17.3,-,N/A,,Clear,20,2013-11-18 04:35:00
10:55 PM,62.6,32.0,32,30.05,10.0,NNE,16.1,-,N/A,,Clear,30,2013-11-18 04:55:00
11:15 PM,60.8,32.0,34,30.05,10.0,NNE,17.3,-,N/A,,Clear,20,2013-11-18 05:15:00
11:35 PM,60.8,32.0,34,30.06,10.0,NNE,12.7,-,N/A,,Clear,20,2013-11-18 05:35:00
11:55 PM,59.0,32.0,36,30.06,10.0,NNE,13.8,-,N/A,,Clear,30,2013-11-18 05:55:00